EZY63BZ EGKK-EKCH

Flight info

Callsign EZY63BZ
Flight time 1h 27m
Altitude 37000
Route FRANE M604 PAAVO Q295 SOMVA DCT MAVAS DCT DOSUR DCT TALSA P729 TUDLO
Aircraft A320/M-SDE3FGHIRWY/LB1

Departure

Time 2026-05-01 12:51
Airport London Gatwick Airport (EGKK)

Arrival

Time 2026-05-01 14:18
Airport Copenhagen Kastrup Airport (EKCH)
Time Latitude Longitude Altitude Speed Heading
2026-05-01 11:54 51.15828 -0.17736 211 ft 0 kts 347°
2026-05-01 12:26 51.15815 -0.17731 214 ft 4 kts 346°
2026-05-01 12:27 51.15789 -0.17719 214 ft 4 kts 340°
2026-05-01 12:27 51.15745 -0.17677 214 ft 4 kts 295°
2026-05-01 12:28 51.15741 -0.17657 212 ft 0 kts 257°
2026-05-01 12:32 51.15740 -0.17666 213 ft 3 kts 257°
2026-05-01 12:33 51.15730 -0.17733 211 ft 9 kts 257°
2026-05-01 12:33 51.15713 -0.17853 207 ft 10 kts 257°
2026-05-01 12:33 51.15692 -0.17995 204 ft 16 kts 257°
2026-05-01 12:33 51.15667 -0.18162 205 ft 3 kts 256°
2026-05-01 12:34 51.15660 -0.18202 214 ft 6 kts 248°
2026-05-01 12:34 51.15616 -0.18234 204 ft 9 kts 174°
2026-05-01 12:34 51.15539 -0.18207 204 ft 13 kts 166°
2026-05-01 12:34 51.15455 -0.18169 209 ft 13 kts 161°
2026-05-01 12:35 51.15362 -0.18135 214 ft 15 kts 168°
2026-05-01 12:35 51.15269 -0.18103 204 ft 8 kts 167°
2026-05-01 12:35 51.15211 -0.18126 211 ft 10 kts 231°
2026-05-01 12:35 51.15189 -0.18261 204 ft 15 kts 262°
2026-05-01 12:36 51.15169 -0.18455 207 ft 20 kts 257°
2026-05-01 12:36 51.15135 -0.18692 203 ft 24 kts 257°
2026-05-01 12:36 51.15102 -0.18934 210 ft 23 kts 257°
2026-05-01 12:36 51.15066 -0.19189 206 ft 24 kts 257°
2026-05-01 12:37 51.15038 -0.19401 209 ft 20 kts 258°
2026-05-01 12:37 51.15007 -0.19625 206 ft 21 kts 257°
2026-05-01 12:37 51.14972 -0.19865 204 ft 23 kts 258°
2026-05-01 12:37 51.14940 -0.20109 215 ft 22 kts 257°
2026-05-01 12:38 51.14906 -0.20350 206 ft 23 kts 257°
2026-05-01 12:38 51.14877 -0.20557 207 ft 15 kts 257°
2026-05-01 12:38 51.14853 -0.20726 212 ft 16 kts 257°
2026-05-01 12:38 51.14827 -0.20907 216 ft 17 kts 257°
2026-05-01 12:39 51.14810 -0.21028 215 ft 10 kts 257°
2026-05-01 12:39 51.14795 -0.21128 210 ft 9 kts 255°
2026-05-01 12:39 51.14778 -0.21220 207 ft 11 kts 255°
2026-05-01 12:39 51.14760 -0.21347 204 ft 5 kts 257°
2026-05-01 12:40 51.14742 -0.21387 208 ft 4 kts 222°
2026-05-01 12:40 51.14727 -0.21397 210 ft 0 kts 192°
2026-05-01 12:47 51.14726 -0.21398 204 ft 1 kts 192°
2026-05-01 12:47 51.14692 -0.21391 208 ft 8 kts 163°
2026-05-01 12:47 51.14645 -0.21340 210 ft 7 kts 149°
2026-05-01 12:48 51.14606 -0.21321 207 ft 7 kts 166°
2026-05-01 12:48 51.14547 -0.21275 209 ft 13 kts 140°
2026-05-01 12:48 51.14518 -0.21191 208 ft 5 kts 94°
2026-05-01 12:48 51.14520 -0.21175 207 ft 0 kts 81°
2026-05-01 12:50 51.14542 -0.21009 214 ft 49 kts 77°
2026-05-01 12:50 51.14664 -0.20092 204 ft 117 kts 78°
2026-05-01 12:50 51.14856 -0.18538 222 ft 167 kts 82°
2026-05-01 12:50 51.15117 -0.16645 640 ft 185 kts 79°
2026-05-01 12:51 51.15449 -0.14526 1020 ft 208 kts 79°
2026-05-01 12:51 51.15802 -0.12193 1410 ft 224 kts 81°
2026-05-01 12:51 51.16496 -0.06959 2415 ft 262 kts 81°
2026-05-01 12:52 51.16857 -0.04068 3223 ft 269 kts 86°
2026-05-01 12:52 51.16808 0.01946 4750 ft 273 kts 93°
2026-05-01 12:52 51.17199 0.04917 5325 ft 281 kts 67°
2026-05-01 12:53 51.20053 0.09305 6493 ft 293 kts 37°
2026-05-01 12:53 51.21744 0.11148 7042 ft 296 kts 36°
2026-05-01 12:53 51.23464 0.13007 7615 ft 299 kts 36°
2026-05-01 12:54 51.25187 0.14869 8181 ft 300 kts 36°
2026-05-01 12:54 51.28678 0.18648 9354 ft 305 kts 36°
2026-05-01 12:54 51.30381 0.20499 9943 ft 307 kts 36°
2026-05-01 12:55 51.34019 0.24451 11155 ft 328 kts 36°
2026-05-01 12:55 51.35939 0.26533 11721 ft 339 kts 36°
2026-05-01 12:55 51.37920 0.28677 12303 ft 349 kts 36°
2026-05-01 12:56 51.39941 0.30862 12895 ft 359 kts 36°
2026-05-01 12:56 51.42045 0.33135 13478 ft 368 kts 36°
2026-05-01 12:56 51.44179 0.35434 14073 ft 375 kts 36°
2026-05-01 12:56 51.46380 0.37800 14632 ft 382 kts 36°
2026-05-01 12:57 51.48603 0.40191 15204 ft 388 kts 36°
2026-05-01 12:57 51.53413 0.44309 16356 ft 402 kts 13°
2026-05-01 12:57 51.56211 0.44766 16932 ft 406 kts
2026-05-01 12:58 51.59050 0.44891 17534 ft 410 kts
2026-05-01 12:58 51.61911 0.45001 18146 ft 413 kts
2026-05-01 12:58 51.64786 0.45109 18721 ft 416 kts
2026-05-01 12:59 51.70608 0.45329 19814 ft 421 kts
2026-05-01 12:59 51.73518 0.46004 20252 ft 424 kts 18°
2026-05-01 12:59 51.78376 0.51154 21159 ft 420 kts 54°
2026-05-01 13:00 51.80646 0.59575 22132 ft 409 kts 86°
2026-05-01 13:00 51.81015 0.64131 22601 ft 411 kts 87°
2026-05-01 13:01 51.81810 0.73359 23542 ft 420 kts 81°
2026-05-01 13:01 51.82764 0.77861 23962 ft 430 kts 69°
2026-05-01 13:01 51.85745 0.86350 24713 ft 434 kts 71°
2026-05-01 13:02 51.86683 0.90901 25081 ft 429 kts 83°
2026-05-01 13:07 52.11621 1.90763 32125 ft 467 kts 70°
2026-05-01 13:07 52.12897 1.95622 32480 ft 466 kts 70°
2026-05-01 13:07 52.14170 2.00471 32843 ft 465 kts 70°
2026-05-01 13:08 52.15441 2.05314 33212 ft 464 kts 70°
2026-05-01 13:08 52.16700 2.10119 33570 ft 463 kts 70°
2026-05-01 13:08 52.17962 2.14948 33916 ft 462 kts 70°
2026-05-01 13:08 52.19218 2.19764 34265 ft 461 kts 70°
2026-05-01 13:09 52.20473 2.24585 34569 ft 460 kts 70°
2026-05-01 13:09 52.21718 2.29378 34862 ft 460 kts 70°
2026-05-01 13:09 52.22961 2.34179 35139 ft 459 kts 70°
2026-05-01 13:09 52.24205 2.38996 35433 ft 458 kts 70°
2026-05-01 13:10 52.25443 2.43791 35706 ft 458 kts 70°
2026-05-01 13:10 52.26681 2.48585 35959 ft 457 kts 69°
2026-05-01 13:10 52.27907 2.53351 36218 ft 457 kts 70°
2026-05-01 13:10 52.29133 2.58134 36472 ft 456 kts 70°
2026-05-01 13:11 52.30353 2.62917 36726 ft 455 kts 71°
2026-05-01 13:11 52.31344 2.67803 36967 ft 452 kts 76°
2026-05-01 13:11 52.32214 2.72744 37172 ft 453 kts 76°
2026-05-01 13:12 52.33953 2.82644 37242 ft 453 kts 76°
2026-05-01 13:12 52.35678 2.92554 37242 ft 453 kts 77°
2026-05-01 13:13 52.37398 3.02461 37244 ft 452 kts 76°
2026-05-01 13:13 52.39150 3.12353 37245 ft 452 kts 72°
2026-05-01 13:14 52.42078 3.21489 37243 ft 456 kts 54°
2026-05-01 13:14 52.45903 3.29797 37241 ft 457 kts 54°
2026-05-01 13:15 52.49693 3.38140 37246 ft 457 kts 55°
2026-05-01 13:15 52.53468 3.46477 37254 ft 458 kts 55°
2026-05-01 13:16 52.57274 3.54877 37256 ft 458 kts 54°
2026-05-01 13:16 52.61071 3.63288 37267 ft 457 kts 54°
2026-05-01 13:17 52.68619 3.80125 37269 ft 456 kts 54°
2026-05-01 13:18 52.74263 3.92775 37267 ft 456 kts 54°
2026-05-01 13:18 52.78002 4.01169 37267 ft 457 kts 54°
2026-05-01 13:19 52.81782 4.09679 37265 ft 456 kts 54°
2026-05-01 13:20 52.87369 4.22353 37273 ft 456 kts 54°
2026-05-01 13:20 52.91105 4.30855 37277 ft 456 kts 55°
2026-05-01 13:21 52.96686 4.43610 37276 ft 456 kts 55°
2026-05-01 13:21 53.00407 4.52142 37277 ft 456 kts 55°
2026-05-01 13:22 53.04119 4.60682 37274 ft 456 kts 55°
2026-05-01 13:22 53.07820 4.69283 37278 ft 456 kts 56°
2026-05-01 13:23 53.11420 4.77951 37275 ft 456 kts 57°
2026-05-01 13:23 53.14966 4.86638 37277 ft 456 kts 57°
2026-05-01 13:24 53.18560 4.95426 37279 ft 456 kts 56°
2026-05-01 13:25 53.23926 5.08498 37277 ft 457 kts 57°
2026-05-01 13:25 53.27507 5.17267 37274 ft 456 kts 56°
2026-05-01 13:26 53.31064 5.26034 37282 ft 456 kts 56°
2026-05-01 13:26 53.34624 5.34818 37287 ft 455 kts 56°
2026-05-01 13:27 53.38172 5.43600 37290 ft 455 kts 57°
2026-05-01 13:27 53.43460 5.56779 37286 ft 454 kts 57°
2026-05-01 13:28 53.48157 5.68525 37281 ft 455 kts 57°
2026-05-01 13:29 53.55192 5.86210 37277 ft 456 kts 57°
2026-05-01 13:31 53.65715 6.12920 37307 ft 455 kts 57°
2026-05-01 13:32 53.74404 6.35216 37309 ft 454 kts 56°
2026-05-01 13:33 53.83024 6.57490 37305 ft 453 kts 57°
2026-05-01 13:34 53.89864 6.75336 37314 ft 453 kts 57°
2026-05-01 13:35 53.94996 6.88790 37330 ft 452 kts 57°
2026-05-01 13:36 54.00103 7.02260 37339 ft 451 kts 57°
2026-05-01 13:36 54.05168 7.15688 37339 ft 450 kts 57°
2026-05-01 13:37 54.08548 7.24672 37332 ft 450 kts 57°
2026-05-01 13:37 54.11904 7.33647 37327 ft 450 kts 57°
2026-05-01 13:38 54.16927 7.47158 37336 ft 450 kts 57°
2026-05-01 13:39 54.20297 7.56223 37339 ft 450 kts 57°
2026-05-01 13:39 54.23618 7.65219 37340 ft 450 kts 57°
2026-05-01 13:40 54.26953 7.74293 37343 ft 450 kts 57°
2026-05-01 13:40 54.30284 7.83369 37345 ft 450 kts 57°
2026-05-01 13:41 54.33607 7.92486 37348 ft 450 kts 57°
2026-05-01 13:41 54.36918 8.01604 37346 ft 451 kts 57°
2026-05-01 13:42 54.40232 8.10737 37365 ft 450 kts 57°
2026-05-01 13:42 54.43530 8.19860 37368 ft 449 kts 57°
2026-05-01 13:43 54.46795 8.28912 37366 ft 448 kts 58°
2026-05-01 13:43 54.50067 8.38034 37363 ft 448 kts 58°
2026-05-01 13:44 54.53336 8.47167 37361 ft 448 kts 58°
2026-05-01 13:44 54.56588 8.56305 37364 ft 448 kts 58°
2026-05-01 13:45 54.59846 8.65494 37364 ft 448 kts 58°
2026-05-01 13:45 54.63086 8.74673 37364 ft 448 kts 58°
2026-05-01 13:46 54.66333 8.83884 37369 ft 448 kts 58°
2026-05-01 13:46 54.69568 8.93104 37369 ft 448 kts 58°
2026-05-01 13:47 54.72794 9.02341 37365 ft 449 kts 58°
2026-05-01 13:47 54.76006 9.11589 37361 ft 449 kts 58°
2026-05-01 13:48 54.79222 9.20862 37363 ft 449 kts 58°
2026-05-01 13:48 54.82444 9.30166 37367 ft 449 kts 59°
2026-05-01 13:49 54.85646 9.39466 37369 ft 450 kts 59°
2026-05-01 13:49 54.88829 9.48756 37374 ft 450 kts 59°
2026-05-01 13:50 54.92019 9.58113 37389 ft 450 kts 59°
2026-05-01 13:50 54.95210 9.67489 37393 ft 450 kts 59°
2026-05-01 13:51 54.98389 9.76875 37392 ft 450 kts 59°
2026-05-01 13:51 55.01568 9.86291 37121 ft 450 kts 59°
2026-05-01 13:51 55.03153 9.90993 36860 ft 450 kts 59°
2026-05-01 13:52 55.04739 9.95708 36594 ft 450 kts 59°
2026-05-01 13:52 55.06317 10.00405 36328 ft 450 kts 59°
2026-05-01 13:52 55.07901 10.05133 36076 ft 450 kts 60°
2026-05-01 13:52 55.09475 10.09854 35813 ft 450 kts 60°
2026-05-01 13:53 55.11049 10.14584 34977 ft 455 kts 60°
2026-05-01 13:53 55.14255 10.24227 33080 ft 462 kts 60°
2026-05-01 13:53 55.15867 10.29094 32064 ft 465 kts 60°
2026-05-01 13:54 55.17501 10.34039 31050 ft 469 kts 60°
2026-05-01 13:54 55.19131 10.38972 30297 ft 467 kts 60°
2026-05-01 13:54 55.20745 10.43866 29614 ft 460 kts 60°
2026-05-01 13:54 55.22335 10.48698 28940 ft 454 kts 60°
2026-05-01 13:55 55.23897 10.53467 28298 ft 448 kts 61°
2026-05-01 13:55 55.25420 10.58127 27672 ft 443 kts 61°
2026-05-01 13:55 55.26938 10.62853 27036 ft 438 kts 64°
2026-05-01 13:55 55.28103 10.67749 26416 ft 433 kts 73°
2026-05-01 13:56 55.28968 10.72791 25802 ft 429 kts 74°
2026-05-01 13:56 55.29811 10.77728 25216 ft 425 kts 74°
2026-05-01 13:56 55.30670 10.82739 24627 ft 421 kts 74°
2026-05-01 13:56 55.31507 10.87646 24053 ft 418 kts 74°
2026-05-01 13:57 55.32322 10.92454 23460 ft 414 kts 74°
2026-05-01 13:57 55.32875 10.95716 23119 ft 409 kts 74°
2026-05-01 13:57 55.33934 11.01998 22462 ft 402 kts 74°
2026-05-01 13:57 55.34719 11.06689 21981 ft 397 kts 74°
2026-05-01 13:58 55.35489 11.11322 21525 ft 392 kts 74°
2026-05-01 13:58 55.36244 11.15904 21079 ft 388 kts 74°
2026-05-01 13:58 55.36989 11.20444 20612 ft 384 kts 74°
2026-05-01 13:58 55.37726 11.24941 20145 ft 381 kts 74°
2026-05-01 13:59 55.38457 11.29402 19678 ft 379 kts 74°
2026-05-01 13:59 55.39178 11.33796 19206 ft 377 kts 74°
2026-05-01 13:59 55.39903 11.38219 18733 ft 376 kts 74°
2026-05-01 13:59 55.40623 11.42628 18198 ft 375 kts 74°
2026-05-01 14:00 55.41340 11.47023 17801 ft 370 kts 74°
2026-05-01 14:00 55.42038 11.51333 17647 ft 358 kts 74°
2026-05-01 14:00 55.42706 11.55477 17525 ft 347 kts 75°
2026-05-01 14:00 55.43395 11.59491 17322 ft 339 kts 69°
2026-05-01 14:01 55.44464 11.63144 17177 ft 334 kts 56°
2026-05-01 14:01 55.45948 11.66287 16775 ft 335 kts 42°
2026-05-01 14:01 55.47697 11.69009 16333 ft 336 kts 40°
2026-05-01 14:01 55.49450 11.71730 15943 ft 336 kts 41°
2026-05-01 14:02 55.51193 11.74453 15637 ft 333 kts 41°
2026-05-01 14:02 55.52914 11.77156 15078 ft 329 kts 41°
2026-05-01 14:02 55.54609 11.79818 14555 ft 324 kts 41°
2026-05-01 14:02 55.56293 11.82464 14107 ft 322 kts 41°
2026-05-01 14:03 55.57960 11.85092 13655 ft 320 kts 41°
2026-05-01 14:03 55.59615 11.87711 13242 ft 319 kts 41°
2026-05-01 14:03 55.61261 11.90319 12807 ft 319 kts 41°
2026-05-01 14:03 55.62924 11.92949 12374 ft 320 kts 41°
2026-05-01 14:04 55.64577 11.95561 12053 ft 317 kts 41°
2026-05-01 14:04 55.66222 11.98161 11694 ft 316 kts 41°
2026-05-01 14:04 55.67860 12.00750 11352 ft 314 kts 41°
2026-05-01 14:04 55.68939 12.02457 11148 ft 313 kts 41°
2026-05-01 14:05 55.71093 12.05895 10687 ft 310 kts 45°
2026-05-01 14:05 55.72384 12.08921 10343 ft 308 kts 63°
2026-05-01 14:05 55.73104 12.12464 10005 ft 304 kts 81°
2026-05-01 14:05 55.73221 12.16133 9675 ft 299 kts 97°
2026-05-01 14:06 55.72994 12.19787 9355 ft 298 kts 98°
2026-05-01 14:06 55.72761 12.23481 9030 ft 297 kts 98°
2026-05-01 14:06 55.72538 12.27101 8718 ft 295 kts 98°
2026-05-01 14:06 55.72320 12.30706 8396 ft 293 kts 98°
2026-05-01 14:07 55.72100 12.34302 8090 ft 292 kts 98°
2026-05-01 14:07 55.71876 12.37868 7780 ft 290 kts 98°
2026-05-01 14:07 55.71655 12.41373 7481 ft 289 kts 98°
2026-05-01 14:08 55.71285 12.47292 6983 ft 287 kts 96°
2026-05-01 14:08 55.71484 12.51948 6557 ft 287 kts 75°
2026-05-01 14:08 55.72232 12.55215 6249 ft 286 kts 62°
2026-05-01 14:08 55.72846 12.57325 5925 ft 287 kts 62°
2026-05-01 14:09 55.73760 12.60501 5470 ft 287 kts 62°
2026-05-01 14:09 55.75109 12.64469 4985 ft 281 kts 48°
2026-05-01 14:09 55.76027 12.66116 4846 ft 276 kts 39°
2026-05-01 14:09 55.77474 12.68354 4666 ft 276 kts 39°
2026-05-01 14:10 55.78909 12.70584 4494 ft 269 kts 39°
2026-05-01 14:10 55.80251 12.72661 4278 ft 251 kts 39°
2026-05-01 14:10 55.81524 12.74652 4030 ft 236 kts 39°
2026-05-01 14:10 55.82705 12.76530 3957 ft 218 kts 40°
2026-05-01 14:11 55.83631 12.78561 3820 ft 211 kts 64°
2026-05-01 14:11 55.83572 12.83524 3683 ft 205 kts 122°
2026-05-01 14:11 55.82668 12.85312 3665 ft 186 kts 147°
2026-05-01 14:12 55.81659 12.86598 3613 ft 172 kts 147°
2026-05-01 14:12 55.80722 12.87798 3565 ft 161 kts 147°
2026-05-01 14:12 55.79812 12.88917 3521 ft 157 kts 156°
2026-05-01 14:12 55.78798 12.89519 3489 ft 153 kts 176°
2026-05-01 14:13 55.77747 12.89476 3456 ft 150 kts 196°
2026-05-01 14:13 55.76826 12.88735 3417 ft 144 kts 223°
2026-05-01 14:13 55.76035 12.87627 3411 ft 146 kts 221°
2026-05-01 14:13 55.75245 12.86478 3295 ft 150 kts 223°
2026-05-01 14:14 55.74391 12.85183 3151 ft 168 kts 223°
2026-05-01 14:14 55.73499 12.83807 2918 ft 170 kts 224°
2026-05-01 14:14 55.72615 12.82435 2685 ft 171 kts 224°
2026-05-01 14:14 55.71722 12.81043 2449 ft 170 kts 224°
2026-05-01 14:15 55.70835 12.79661 2204 ft 170 kts 224°
2026-05-01 14:15 55.69955 12.78290 1983 ft 162 kts 224°
2026-05-01 14:15 55.69142 12.77026 1758 ft 146 kts 224°
2026-05-01 14:15 55.68407 12.75882 1579 ft 139 kts 224°
2026-05-01 14:16 55.67686 12.74758 1396 ft 138 kts 224°
2026-05-01 14:16 55.66970 12.73643 1218 ft 137 kts 223°
2026-05-01 14:16 55.66253 12.72527 1042 ft 137 kts 224°
2026-05-01 14:16 55.65538 12.71415 850 ft 137 kts 223°
2026-05-01 14:17 55.64818 12.70297 669 ft 138 kts 221°
2026-05-01 14:17 55.64099 12.69178 487 ft 138 kts 220°
2026-05-01 14:17 55.63374 12.68045 296 ft 139 kts 220°
2026-05-01 14:17 55.62651 12.66932 102 ft 138 kts 219°
2026-05-01 14:18 55.61937 12.65843 21 ft 124 kts 218°
2026-05-01 14:18 55.61428 12.65040 21 ft 73 kts 220°
2026-05-01 14:18 55.61145 12.64620 20 ft 45 kts 221°
2026-05-01 14:18 55.60996 12.64371 20 ft 43 kts 224°
2026-05-01 14:19 55.60749 12.63984 27 ft 25 kts 222°
2026-05-01 14:19 55.60704 12.63763 28 ft 17 kts 296°
2026-05-01 14:19 55.60770 12.63627 23 ft 11 kts 321°
2026-05-01 14:19 55.60846 12.63619 21 ft 12 kts 17°
2026-05-01 14:20 55.60913 12.63685 21 ft 10 kts 32°
2026-05-01 14:20 55.61038 12.63829 21 ft 16 kts 33°
2026-05-01 14:20 55.61151 12.63960 18 ft 22 kts 35°
2026-05-01 14:21 55.61295 12.64131 16 ft 27 kts 34°
2026-05-01 14:21 55.61448 12.64308 18 ft 27 kts 33°
2026-05-01 14:21 55.61608 12.64490 19 ft 28 kts 33°
2026-05-01 14:22 55.61918 12.64846 17 ft 25 kts 33°
2026-05-01 14:22 55.62058 12.65006 21 ft 23 kts 32°
2026-05-01 14:22 55.62113 12.65067 23 ft 2 kts 33°
2026-05-01 14:22 55.62113 12.65068 23 ft 0 kts 33°
2026-05-01 14:24 55.62114 12.65069 23 ft 1 kts 33°
2026-05-01 14:24 55.62147 12.65107 26 ft 11 kts 31°
2026-05-01 14:24 55.62237 12.65194 23 ft 18 kts 12°
2026-05-01 14:25 55.62370 12.65191 23 ft 15 kts 356°
2026-05-01 14:25 55.62434 12.65246 22 ft 11 kts 72°
2026-05-01 14:25 55.62440 12.65405 18 ft 15 kts 88°
2026-05-01 14:25 55.62452 12.65544 18 ft 8 kts 43°
2026-05-01 14:26 55.62496 12.65557 18 ft 5 kts 17°
2026-05-01 14:26 55.62513 12.65568 17 ft 0 kts 19°